TimeEST,TemperatureF,Dew PointF,Humidity,Sea Level PressureIn,VisibilityMPH,Wind Direction,Wind SpeedMPH,Gust SpeedMPH,PrecipitationIn,Events,Conditions,WindDirDegrees,DateUTC
12:52 AM,44.1,30.9,60,30.24,10.0,SSE,6.9,-,N/A,,Mostly Cloudy,160,2013-11-21 05:52:00
1:52 AM,44.1,30.9,60,30.24,10.0,SSE,8.1,-,N/A,,Overcast,160,2013-11-21 06:52:00
2:52 AM,45.0,30.9,58,30.25,10.0,SSE,4.6,-,N/A,,Overcast,150,2013-11-21 07:52:00
3:52 AM,43.0,33.1,68,30.27,10.0,SSE,5.8,-,N/A,,Overcast,160,2013-11-21 08:52:00
4:52 AM,43.0,34.0,71,30.28,10.0,SE,6.9,-,0.00,,Overcast,140,2013-11-21 09:52:00
5:52 AM,44.1,33.1,65,30.27,10.0,SE,8.1,-,N/A,,Overcast,140,2013-11-21 10:52:00
6:52 AM,43.0,32.0,65,30.28,10.0,SSE,8.1,-,N/A,,Overcast,150,2013-11-21 11:52:00
8:52 AM,45.0,33.1,63,30.31,10.0,SSE,8.1,-,N/A,,Mostly Cloudy,160,2013-11-21 13:52:00
9:52 AM,48.9,34.0,56,30.32,10.0,SSE,8.1,-,N/A,,Mostly Cloudy,160,2013-11-21 14:52:00
10:39 AM,50.0,35.6,58,30.32,10.0,South,11.5,-,N/A,,Overcast,170,2013-11-21 15:39:00
10:52 AM,50.0,37.0,61,30.32,10.0,South,11.5,-,N/A,,Overcast,170,2013-11-21 15:52:00
11:52 AM,51.1,39.0,63,30.29,10.0,SSE,8.1,-,N/A,,Overcast,160,2013-11-21 16:52:00
12:52 PM,54.0,42.1,64,30.27,10.0,SSW,8.1,-,N/A,,Overcast,200,2013-11-21 17:52:00
1:06 PM,53.6,42.8,67,30.26,10.0,South,10.4,-,N/A,,Overcast,180,2013-11-21 18:06:00
1:52 PM,55.0,44.1,67,30.22,10.0,South,10.4,-,N/A,,Mostly Cloudy,170,2013-11-21 18:52:00
2:52 PM,53.1,42.1,66,30.20,10.0,SSE,8.1,-,N/A,,Overcast,150,2013-11-21 19:52:00
3:27 PM,53.6,42.8,67,30.21,10.0,South,5.8,-,N/A,,Overcast,180,2013-11-21 20:27:00
3:52 PM,54.0,43.0,66,30.20,10.0,SSE,8.1,-,N/A,,Overcast,160,2013-11-21 20:52:00
4:05 PM,53.6,42.8,67,30.21,10.0,South,5.8,-,N/A,,Overcast,180,2013-11-21 21:05:00
4:52 PM,53.1,43.0,69,30.22,10.0,Calm,Calm,-,N/A,,Overcast,0,2013-11-21 21:52:00
5:52 PM,53.1,42.1,66,30.22,10.0,Calm,Calm,-,N/A,,Overcast,0,2013-11-21 22:52:00
6:52 PM,51.1,44.1,77,30.24,10.0,East,3.5,-,0.00,Rain,Light Rain,100,2013-11-21 23:52:00
7:52 PM,51.1,44.1,77,30.22,10.0,SE,3.5,-,0.01,Rain,Light Rain,130,2013-11-22 00:52:00
8:52 PM,50.0,46.9,89,30.22,8.0,SSE,4.6,-,0.01,Rain,Light Rain,160,2013-11-22 01:52:00
9:52 PM,50.0,48.0,93,30.22,9.0,Calm,Calm,-,0.03,,Overcast,0,2013-11-22 02:52:00
10:52 PM,50.0,48.9,96,30.20,9.0,South,6.9,-,N/A,,Overcast,170,2013-11-22 03:52:00
11:52 PM,52.0,50.0,93,30.21,6.0,South,6.9,-,0.00,,Light Drizzle,190,2013-11-22 04:52:00